Weather in Bol'shoye Oparino

Russia / Mari El Republic     56°39′34″N   49°50′59″E
temp.,
°C
wind,
m/s
gust,
m/s
humid.,
%
clouds,
%
prec.,
mm/h
press.,
hPa
HPBL,
m
26 february, fri
fri2600:00−20se499595 0.1 1019336
03:00−21se389797 0.1 1020230
06:00−22se489798 0.0 1018184
09:00−20se589586 0.0 1018324
12:00−16sse599298 0.0 1017510
15:00−15se7129199 0.1 1015566
18:00−15se81590100 0.1 1010613
21:00−15se81594100 0.9 1005630
27 february, sat
sat2700:00−14se81494100 4.2 1001705
03:00−13se71294100 6.2 1000600
06:00−13ese61194100 0.7 998485
09:00−12e61094100 1.6 999488
12:00−10e6992100 0.5 999586
15:00−10ene6993100 1.1 1001578
18:00−12ne51094100 0.3 1002429
21:00−13ne5109499 0.5 1004375
28 february, sun
sun2800:00−14nne599599 0.2 1005322
03:00−17n589698 0.3 1008233
06:00−21nne489985 0.0 1009151
09:00−20nne479570 0.1 1010250
12:00−17n479358 0.0 1011339
15:00−16n589170 0.0 1013421
18:00−20n479875 0.0 1014108
21:00−21n349969 0.0 101771
1 march, mon
mon100:00−22n339960 0.0 101832
03:00−22n339840 0.0 102130
06:00−23n23980 0.0 102221
09:00−19nnw22950 0.0 1023108
12:00−15wnw228833 0.0 1022236
15:00−13w248823 0.0 1022311
18:00−16sw339766 0.0 101933
21:00−16sw5109477 0.0 1017240
2 march, tue
tue200:00−14ssw61194100 0.0 1013305
03:00−12sw61194100 1.0 1009411
06:00−10ssw61194100 0.6 1006372
09:00−7sw5895100 1.6 1004304
12:00−1w369697 0.3 1003486
15:00−1wnw479199 0.6 1002625
18:00−4wnw3491100 0.0 100165
21:00−5w379592 0.0 1002104